Flag for Germany Weather past 2 weeks in Castrop-Rauxel, North Rhine-Westphalia, Germany

Now
68 °F

Scattered clouds.


Feels Like: 68 °F
Forecast: 53 / 70 °F
Wind: 7 mph from Northwest

Location: Dortmund / Wickede

Current Time: Oct 2, 2014 at 4:41:55 PM

Latest Report: Oct 2, 2014 at 4:20 PM


Visibility: N/A

Pressure: 30.36 "Hg

Humidity: 64%

Dew point: 55 °F

Location of Castrop-RauxelLocation

Historic Weather in Castrop-Rauxel — Graph

°F

Castrop-Rauxel temperature yesterday

Maximum temperature yesterday: 68 °F (at 1:20 PM)
Minimum temperature yesterday: 54 °F (at 8:20 PM)
Average temperature yesterday: 61 °F

Past Weeks' High & Low Weather Summary

 TemperatureHumidityPressure
High77 °F (Sep 17, 3:20 PM)100% (Sep 21, 10:20 AM)30.39 "Hg (Sep 21, 10:20 AM)
Low46 °F (Sep 23, 5:20 AM)39% (Sep 17, 3:20 PM)29.83 "Hg (Sep 19, 5:20 AM)
Average61 °F78%30.11 "Hg
* Reported Sep 17 3:20 PM — Oct 2 3:50 PM, Castrop-Rauxel, Weather by CustomWeather, © 2014

Note: Actual official high and low records may vary slightly from our data, if they occured in-between our weather recording intervals... More about our weather records

Advertising

Castrop-Rauxel weather history for previous 24 hours

 ConditionsComfort  
Time TempWeatherWind HumidityBarometerVisibility
3:50 PM
Oct 2
72 °FSunny.2 mph47%30.36 "Hg10 mi
3:20 PM72 °FSunny.3 mph50%30.36 "Hg10 mi
2:50 PM72 °FSunny.2 mph50%30.36 "Hg10 mi
2:20 PM70 °FPassing clouds.6 mph46%30.36 "HgN/A
1:50 PM72 °FPassing clouds.3 mph47%30.36 "HgN/A
1:20 PM70 °FPassing clouds.3 mph50%30.39 "HgN/A
12:50 PM70 °FPassing clouds.3 mph53%30.39 "HgN/A
12:20 PM70 °FPassing clouds.5 mph53%30.39 "HgN/A
11:50 AM68 °FPassing clouds.6 mph56%30.39 "HgN/A
11:20 AM66 °FPassing clouds.7 mph68%30.39 "HgN/A
10:50 AM63 °FSunny.7 mph77%30.39 "Hg10 mi
10:20 AM61 °FSunny.7 mph77%30.39 "Hg10 mi
9:50 AM59 °FSunny.9 mph77%30.39 "Hg10 mi
9:20 AM57 °FPassing clouds.9 mph82%30.39 "HgN/A
8:50 AM57 °FPartly sunny.9 mph82%30.39 "HgN/A
8:20 AM55 °FPassing clouds.3 mph82%30.39 "HgN/A
7:50 AM54 °FPassing clouds.10 mph88%30.36 "HgN/A
7:20 AM54 °FClear.9 mph88%30.36 "Hg10 mi
6:50 AM54 °FClear.12 mph88%30.36 "Hg10 mi
6:20 AM54 °FClear.10 mph88%30.36 "Hg10 mi
5:50 AM54 °FClear.9 mph88%30.36 "Hg10 mi
5:20 AM54 °FClear.9 mph88%30.36 "Hg10 mi
10:50 PM
Oct 1
57 °FClear.9 mph82%30.36 "Hg10 mi
10:20 PM55 °FPassing clouds.7 mph82%30.36 "HgN/A
9:50 PM57 °FClear.7 mph82%30.36 "Hg10 mi
9:20 PM54 °FClear.5 mph88%30.36 "Hg10 mi
8:50 PM54 °FClear.3 mph88%30.33 "Hg10 mi
8:20 PM54 °FClear.No wind82%30.33 "Hg10 mi
7:50 PM57 °FSunny.2 mph77%30.33 "Hg10 mi
7:20 PM59 °FSunny.5 mph77%30.33 "Hg10 mi
6:50 PM63 °FSunny.3 mph68%30.33 "Hg10 mi
6:20 PM66 °FPassing clouds.6 mph60%30.33 "HgN/A
5:50 PM66 °FPassing clouds.6 mph64%30.33 "HgN/A
5:20 PM64 °FSunny.7 mph64%30.30 "Hg10 mi
4:50 PM66 °FPassing clouds.6 mph64%30.30 "HgN/A
4:20 PM66 °FPassing clouds.8 mph60%30.30 "HgN/A
Weather by CustomWeather, © 2014

See weather overviewHow to use our weather pages